"Zeitpunkt";"timestamp";"D0";"V0";"V0_max";"T0";"F0";"G0";"S0";"R0";"M0";"T1";"L0";"L0_nn"
"25.03.2024, 00:00";"1711328401";"224";"4";"9";"56";"85";"6";"0";"0";"0";"43";"0";"9909"
"25.03.2024, 00:10";"1711329001";"229";"4";"9";"55";"86";"6";"0";"0";"0";"43";"0";"9909"
"25.03.2024, 00:20";"1711329601";"218";"4";"7";"54";"86";"7";"0";"0";"0";"44";"0";"9909"
"25.03.2024, 00:30";"1711330201";"221";"4";"8";"53";"86";"7";"0";"0";"0";"41";"0";"9909"
"25.03.2024, 00:40";"1711330801";"223";"4";"7";"52";"87";"7";"0";"0";"0";"42";"0";"9909"
"25.03.2024, 00:50";"1711331401";"212";"4";"8";"51";"87";"7";"0";"0";"0";"41";"0";"9909"
"25.03.2024, 01:00";"1711332001";"206";"4";"8";"51";"87";"7";"0";"0";"0";"41";"0";"9909"
"25.03.2024, 01:10";"1711332601";"209";"5";"8";"50";"87";"7";"0";"0";"0";"39";"0";"9909"
"25.03.2024, 01:20";"1711333201";"209";"4";"8";"50";"87";"7";"0";"0";"0";"40";"0";"9909"
"25.03.2024, 01:30";"1711333801";"213";"4";"9";"49";"87";"7";"0";"0";"0";"40";"0";"9909"
"25.03.2024, 01:40";"1711334401";"207";"3";"8";"48";"88";"7";"0";"0";"0";"36";"0";"9909"
"25.03.2024, 01:50";"1711335001";"210";"4";"8";"47";"88";"7";"0";"0";"0";"36";"0";"9909"
"25.03.2024, 02:00";"1711335601";"213";"3";"6";"46";"88";"7";"0";"0";"0";"35";"0";"9912"
"25.03.2024, 02:10";"1711336201";"217";"3";"9";"46";"89";"7";"0";"0";"0";"37";"0";"9912"
"25.03.2024, 02:20";"1711336801";"214";"4";"9";"45";"89";"7";"0";"0";"0";"37";"0";"9912"
"25.03.2024, 02:30";"1711337401";"215";"4";"11";"45";"89";"7";"0";"0";"0";"39";"0";"9912"
"25.03.2024, 02:40";"1711338001";"217";"4";"9";"46";"89";"7";"0";"0";"0";"41";"0";"9912"
"25.03.2024, 02:50";"1711338601";"202";"4";"8";"47";"88";"7";"0";"0";"0";"42";"0";"9912"
"25.03.2024, 03:00";"1711339201";"212";"3";"8";"47";"88";"7";"0";"0";"0";"43";"0";"9909"
"25.03.2024, 03:10";"1711339801";"255";"2";"4";"48";"88";"6";"0";"0";"0";"37";"0";"9909"
"25.03.2024, 03:20";"1711340401";"273";"2";"5";"47";"88";"6";"0";"0";"0";"41";"0";"9909"
"25.03.2024, 03:30";"1711341001";"221";"3";"6";"48";"88";"7";"0";"0";"0";"41";"0";"9909"
"25.03.2024, 03:40";"1711341601";"206";"2";"6";"48";"88";"7";"0";"0";"0";"41";"0";"9909"
"25.03.2024, 03:50";"1711342201";"202";"2";"4";"47";"88";"8";"0";"0";"0";"40";"0";"9909"
"25.03.2024, 04:00";"1711342801";"180";"2";"4";"46";"89";"8";"0";"0";"0";"40";"0";"9912"
"25.03.2024, 04:10";"1711343401";"174";"1";"4";"46";"89";"8";"0";"0";"0";"39";"0";"9912"
"25.03.2024, 04:20";"1711344001";"128";"0";"2";"46";"88";"9";"0";"0";"0";"32";"0";"9912"
"25.03.2024, 04:30";"1711344601";"164";"0";"1";"44";"89";"9";"0";"0";"0";"26";"0";"9912"
"25.03.2024, 04:40";"1711345201";"104";"0";"1";"43";"90";"12";"0";"0";"0";"25";"0";"9912"
"25.03.2024, 04:50";"1711345801";"143";"0";"2";"42";"91";"69";"0";"0";"0";"32";"0";"9912"
"25.03.2024, 05:00";"1711346401";"168";"1";"3";"43";"90";"353";"2";"0";"0";"43";"0";"9913"
"25.03.2024, 05:10";"1711347001";"151";"2";"4";"46";"90";"730";"10";"0";"0";"48";"0";"9913"
"25.03.2024, 05:20";"1711347601";"152";"2";"5";"48";"90";"935";"10";"0";"0";"49";"0";"9913"
"25.03.2024, 05:30";"1711348201";"172";"2";"5";"50";"89";"660";"5";"0";"0";"50";"0";"9913"
"25.03.2024, 05:40";"1711348801";"164";"2";"5";"50";"88";"153";"0";"0";"0";"52";"0";"9913"
"25.03.2024, 05:50";"1711349401";"158";"2";"5";"52";"88";"195";"0";"0";"0";"52";"0";"9913"
"25.03.2024, 06:00";"1711350001";"153";"2";"4";"52";"87";"196";"1";"0";"0";"54";"0";"9914"
"25.03.2024, 06:10";"1711350601";"153";"2";"4";"54";"87";"212";"0";"0";"0";"60";"0";"9914"
"25.03.2024, 06:20";"1711351201";"152";"2";"4";"56";"86";"367";"2";"0";"0";"61";"0";"9914"
"25.03.2024, 06:30";"1711351801";"171";"2";"6";"59";"85";"358";"3";"0";"0";"67";"0";"9914"
"25.03.2024, 06:40";"1711352402";"152";"1";"4";"62";"84";"1,181";"10";"0";"0";"69";"0";"9914"
"25.03.2024, 06:50";"1711353001";"132";"1";"3";"64";"82";"1,454";"10";"0";"0";"70";"0";"9914"
"25.03.2024, 07:00";"1711353601";"144";"0";"2";"69";"78";"2,074";"10";"0";"0";"90";"0";"9912"
"25.03.2024, 07:10";"1711354201";"178";"1";"4";"75";"74";"2,589";"10";"0";"0";"81";"0";"9912"
"25.03.2024, 07:20";"1711354801";"200";"3";"6";"77";"71";"788";"10";"0";"0";"83";"0";"9912"
"25.03.2024, 07:30";"1711355401";"207";"4";"7";"78";"68";"839";"10";"0";"0";"114";"0";"9912"
"25.03.2024, 07:40";"1711356001";"206";"3";"6";"83";"62";"2,689";"10";"0";"0";"102";"0";"9912"
"25.03.2024, 07:50";"1711356601";"234";"3";"7";"83";"64";"940";"6";"0";"0";"95";"0";"9912"
"25.03.2024, 08:00";"1711357201";"279";"3";"7";"85";"66";"560";"6";"0";"0";"124";"0";"9912"
"25.03.2024, 08:10";"1711357801";"219";"3";"7";"85";"61";"1,515";"9";"0";"0";"93";"0";"9912"
"25.03.2024, 08:20";"1711358401";"178";"4";"9";"85";"61";"515";"4";"0";"0";"94";"0";"9912"
"25.03.2024, 08:30";"1711359001";"197";"4";"8";"87";"59";"1,220";"8";"0";"0";"123";"0";"9912"
"25.03.2024, 08:40";"1711359601";"161";"3";"7";"92";"61";"1,805";"10";"0";"0";"118";"0";"9912"
"25.03.2024, 08:50";"1711360201";"192";"3";"7";"93";"60";"1,273";"10";"0";"0";"114";"0";"9912"
"25.03.2024, 09:00";"1711360801";"181";"5";"11";"95";"55";"1,955";"10";"0";"0";"120";"0";"9912"
"25.03.2024, 09:10";"1711361401";"187";"4";"10";"94";"56";"1,734";"10";"0";"0";"94";"0";"9912"
"25.03.2024, 09:20";"1711362001";"187";"5";"11";"94";"55";"1,125";"10";"0";"0";"116";"0";"9912"
"25.03.2024, 09:30";"1711362601";"171";"5";"8";"97";"53";"2,517";"10";"0";"0";"125";"0";"9912"
"25.03.2024, 09:40";"1711363201";"166";"4";"8";"104";"55";"2,309";"10";"0";"0";"135";"0";"9912"
"25.03.2024, 09:50";"1711363801";"166";"4";"8";"106";"52";"2,732";"10";"0";"0";"135";"0";"9912"
"25.03.2024, 10:00";"1711364401";"172";"4";"7";"104";"50";"2,564";"10";"0";"0";"106";"0";"9902"
"25.03.2024, 10:10";"1711365001";"179";"3";"5";"101";"51";"640";"10";"0";"0";"114";"0";"9902"
"25.03.2024, 10:20";"1711365601";"148";"1";"6";"101";"54";"983";"10";"0";"0";"111";"0";"9902"
"25.03.2024, 10:30";"1711366201";"215";"2";"4";"107";"54";"1,314";"10";"0";"0";"151";"0";"9902"
"25.03.2024, 10:40";"1711366801";"182";"2";"7";"110";"50";"2,244";"10";"0";"0";"139";"0";"9902"
"25.03.2024, 10:50";"1711367401";"185";"3";"7";"112";"49";"2,334";"10";"0";"0";"129";"0";"9902"
"25.03.2024, 11:00";"1711368001";"163";"3";"9";"116";"49";"1,585";"10";"0";"0";"155";"0";"9897"
"25.03.2024, 11:10";"1711368601";"146";"3";"7";"116";"46";"1,854";"10";"0";"0";"161";"0";"9897"
"25.03.2024, 11:20";"1711369201";"142";"2";"6";"121";"46";"2,383";"10";"0";"0";"176";"0";"9897"
"25.03.2024, 11:30";"1711369801";"159";"4";"10";"121";"47";"2,495";"10";"0";"0";"145";"0";"9897"
"25.03.2024, 11:40";"1711370401";"188";"5";"8";"115";"47";"1,278";"4";"0";"0";"110";"0";"9897"
"25.03.2024, 11:50";"1711371001";"160";"2";"6";"109";"50";"306";"1";"0";"0";"107";"0";"9897"
"25.03.2024, 12:00";"1711371601";"106";"4";"9";"107";"49";"343";"4";"0";"0";"113";"0";"9887"
"25.03.2024, 12:10";"1711372201";"98";"3";"7";"111";"49";"1,561";"5";"0";"0";"124";"0";"9887"
"25.03.2024, 12:20";"1711372801";"162";"3";"8";"116";"47";"2,997";"10";"0";"0";"124";"0";"9887"
"25.03.2024, 12:30";"1711373401";"181";"4";"8";"117";"46";"2,942";"10";"0";"0";"116";"0";"9887"
"25.03.2024, 12:40";"1711374001";"159";"3";"9";"113";"46";"2,967";"10";"0";"0";"105";"0";"9887"
"25.03.2024, 12:50";"1711374602";"105";"3";"7";"113";"46";"2,432";"10";"0";"0";"111";"0";"9887"
"25.03.2024, 13:00";"1711375201";"85";"3";"9";"113";"45";"3,066";"10";"0";"0";"107";"0";"9878"
"25.03.2024, 13:10";"1711375801";"131";"3";"6";"118";"45";"3,011";"10";"0";"0";"133";"0";"9878"
"25.03.2024, 13:20";"1711376401";"175";"3";"8";"119";"43";"2,940";"10";"0";"0";"119";"0";"9878"
"25.03.2024, 13:30";"1711377001";"178";"3";"8";"119";"40";"2,885";"10";"0";"0";"111";"0";"9878"
"25.03.2024, 13:40";"1711377601";"107";"4";"10";"118";"42";"2,819";"10";"0";"0";"110";"0";"9878"
"25.03.2024, 13:50";"1711378201";"126";"4";"11";"119";"41";"2,890";"10";"0";"0";"112";"0";"9878"
"25.03.2024, 14:00";"1711378801";"149";"3";"7";"119";"41";"2,900";"10";"0";"0";"110";"0";"9869"
"25.03.2024, 14:10";"1711379402";"143";"2";"5";"119";"42";"2,882";"10";"0";"0";"117";"0";"9869"
"25.03.2024, 14:20";"1711380001";"156";"3";"10";"120";"41";"2,839";"10";"0";"0";"112";"0";"9869"
"25.03.2024, 14:30";"1711380601";"184";"4";"8";"120";"41";"2,843";"10";"0";"0";"109";"0";"9869"
"25.03.2024, 14:40";"1711381201";"184";"3";"7";"119";"40";"2,792";"10";"0";"0";"105";"0";"9869"
"25.03.2024, 14:50";"1711381801";"188";"2";"6";"118";"40";"2,797";"10";"0";"0";"107";"0";"9869"
"25.03.2024, 15:00";"1711382401";"67";"3";"10";"117";"40";"2,819";"10";"0";"0";"106";"0";"9859"
"25.03.2024, 15:10";"1711383001";"81";"2";"6";"118";"41";"2,729";"10";"0";"0";"107";"0";"9859"
"25.03.2024, 15:20";"1711383601";"121";"3";"8";"119";"41";"2,587";"10";"0";"0";"107";"0";"9859"
"25.03.2024, 15:30";"1711384201";"83";"3";"10";"119";"41";"2,398";"10";"0";"0";"108";"0";"9859"
"25.03.2024, 15:40";"1711384801";"104";"4";"10";"119";"40";"2,269";"10";"0";"0";"107";"0";"9859"
"25.03.2024, 15:50";"1711385401";"101";"4";"10";"119";"40";"1,707";"10";"0";"0";"106";"0";"9859"
"25.03.2024, 16:00";"1711386001";"105";"4";"11";"117";"40";"1,003";"10";"0";"0";"101";"0";"9855"
"25.03.2024, 16:10";"1711386601";"85";"4";"10";"116";"41";"400";"4";"0";"0";"103";"0";"9855"
"25.03.2024, 16:20";"1711387201";"98";"4";"10";"114";"41";"186";"0";"0";"0";"100";"0";"9855"
"25.03.2024, 16:30";"1711387801";"95";"5";"12";"112";"41";"125";"0";"0";"0";"97";"0";"9855"
"25.03.2024, 16:40";"1711388401";"96";"3";"8";"111";"41";"74";"0";"0";"0";"96";"0";"9855"
"25.03.2024, 16:50";"1711389001";"91";"4";"9";"109";"42";"34";"0";"0";"0";"95";"0";"9855"
"25.03.2024, 17:00";"1711389601";"92";"2";"6";"107";"42";"12";"0";"0";"0";"90";"0";"9852"
"25.03.2024, 17:10";"1711390201";"92";"3";"7";"105";"43";"10";"0";"0";"0";"91";"0";"9852"
"25.03.2024, 17:20";"1711390801";"85";"3";"8";"103";"44";"10";"0";"0";"0";"87";"0";"9852"
"25.03.2024, 17:30";"1711391401";"85";"2";"6";"102";"45";"10";"0";"0";"0";"86";"0";"9852"
"25.03.2024, 17:40";"1711392001";"81";"3";"8";"101";"45";"10";"0";"0";"0";"89";"0";"9852"
"25.03.2024, 17:50";"1711392601";"78";"3";"8";"100";"46";"10";"0";"0";"0";"86";"0";"9852"
"25.03.2024, 18:00";"1711393201";"72";"2";"7";"99";"46";"10";"0";"0";"0";"85";"0";"9848"
"25.03.2024, 18:10";"1711393801";"75";"2";"7";"98";"46";"10";"0";"0";"0";"86";"0";"9848"
"25.03.2024, 18:20";"1711394401";"79";"3";"7";"97";"46";"10";"0";"0";"0";"84";"0";"9848"
"25.03.2024, 18:30";"1711395001";"75";"3";"7";"96";"47";"10";"0";"0";"0";"82";"0";"9848"
"25.03.2024, 18:40";"1711395601";"79";"2";"7";"94";"48";"10";"0";"0";"0";"83";"0";"9848"
"25.03.2024, 18:50";"1711396201";"74";"3";"7";"93";"49";"10";"0";"0";"0";"80";"0";"9848"
"25.03.2024, 19:00";"1711396801";"75";"3";"7";"91";"50";"10";"0";"0";"0";"78";"0";"9845"
"25.03.2024, 19:10";"1711397402";"70";"3";"7";"90";"53";"10";"0";"0";"0";"79";"0";"9845"
"25.03.2024, 19:20";"1711398001";"69";"4";"8";"88";"54";"10";"0";"0";"0";"77";"0";"9845"
"25.03.2024, 19:30";"1711398601";"75";"4";"10";"86";"55";"10";"0";"0";"0";"75";"0";"9845"
"25.03.2024, 19:40";"1711399202";"76";"3";"8";"85";"55";"10";"0";"0";"0";"74";"0";"9845"
"25.03.2024, 19:50";"1711399801";"78";"3";"9";"84";"53";"10";"0";"0";"0";"75";"0";"9845"
"25.03.2024, 20:00";"1711400401";"88";"4";"10";"85";"53";"10";"0";"0";"0";"75";"0";"9842"
"25.03.2024, 20:10";"1711401001";"89";"3";"9";"84";"53";"10";"0";"0";"0";"74";"0";"9842"
"25.03.2024, 20:20";"1711401601";"93";"4";"10";"84";"53";"9";"0";"0";"0";"74";"0";"9842"
"25.03.2024, 20:30";"1711402201";"95";"4";"9";"83";"53";"9";"0";"0";"0";"73";"0";"9842"
"25.03.2024, 20:40";"1711402801";"87";"4";"12";"82";"53";"10";"0";"0";"0";"73";"0";"9842"
"25.03.2024, 20:50";"1711403401";"88";"5";"11";"82";"53";"9";"0";"0";"0";"72";"0";"9842"
"25.03.2024, 21:00";"1711404001";"91";"3";"10";"80";"54";"10";"0";"0";"0";"67";"0";"9837"
"25.03.2024, 21:10";"1711404601";"84";"4";"8";"80";"54";"10";"0";"0";"0";"69";"0";"9837"
"25.03.2024, 21:20";"1711405201";"79";"4";"9";"79";"54";"10";"0";"0";"0";"67";"0";"9837"
"25.03.2024, 21:30";"1711405801";"82";"4";"8";"77";"55";"10";"0";"0";"0";"66";"0";"9837"
"25.03.2024, 21:40";"1711406401";"77";"2";"7";"76";"55";"10";"0";"0";"0";"62";"0";"9837"
"25.03.2024, 21:50";"1711407001";"74";"2";"7";"74";"56";"10";"0";"0";"0";"63";"0";"9837"
"25.03.2024, 22:00";"1711407601";"72";"2";"7";"74";"56";"10";"0";"0";"0";"63";"0";"9832"
"25.03.2024, 22:10";"1711408202";"83";"2";"10";"73";"56";"10";"0";"0";"0";"61";"0";"9832"
"25.03.2024, 22:20";"1711408801";"92";"2";"7";"72";"56";"9";"0";"0";"0";"61";"0";"9832"
"25.03.2024, 22:30";"1711409401";"78";"2";"6";"71";"57";"9";"0";"0";"0";"58";"0";"9832"
"25.03.2024, 22:40";"1711410001";"75";"1";"4";"69";"58";"10";"0";"0";"0";"54";"0";"9832"
"25.03.2024, 22:50";"1711410601";"73";"2";"6";"68";"59";"10";"0";"0";"0";"57";"0";"9832"
"25.03.2024, 23:00";"1711411201";"75";"3";"8";"67";"59";"10";"0";"0";"0";"56";"0";"9825"
"25.03.2024, 23:10";"1711411801";"76";"4";"9";"66";"60";"10";"0";"0";"0";"57";"0";"9825"
"25.03.2024, 23:20";"1711412401";"71";"3";"8";"66";"60";"10";"0";"0";"0";"56";"0";"9825"
"25.03.2024, 23:30";"1711413001";"73";"3";"7";"66";"60";"10";"0";"0";"0";"59";"0";"9825"
"25.03.2024, 23:40";"1711413601";"72";"3";"7";"66";"59";"10";"0";"0";"0";"59";"0";"9825"
"25.03.2024, 23:50";"1711414201";"75";"2";"8";"67";"59";"9";"0";"0";"0";"56";"0";"9825"
"26.03.2024, 00:00";"1711414801";"77";"2";"7";"66";"59";"10";"0";"0";"0";"55";"0";"9818"
"26.03.2024, 00:10";"1711415401";"77";"2";"8";"66";"59";"10";"0";"0";"0";"55";"0";"9818"
"26.03.2024, 00:20";"1711416001";"71";"2";"7";"64";"60";"10";"0";"0";"0";"54";"0";"9818"
"26.03.2024, 00:30";"1711416601";"66";"2";"6";"64";"60";"10";"0";"0";"0";"55";"0";"9818"
"26.03.2024, 00:40";"1711417201";"61";"2";"7";"63";"60";"10";"0";"0";"0";"52";"0";"9818"
"26.03.2024, 00:50";"1711417801";"74";"1";"5";"62";"61";"10";"0";"0";"0";"51";"0";"9818"
"26.03.2024, 01:00";"1711418401";"55";"3";"6";"62";"62";"10";"0";"0";"0";"52";"0";"9809"
"26.03.2024, 01:10";"1711419001";"55";"3";"6";"61";"62";"10";"0";"0";"0";"50";"0";"9809"
"26.03.2024, 01:20";"1711419601";"59";"3";"6";"62";"62";"10";"0";"0";"0";"52";"0";"9809"
"26.03.2024, 01:30";"1711420201";"63";"2";"6";"62";"61";"10";"0";"0";"0";"52";"0";"9809"
"26.03.2024, 01:40";"1711420801";"61";"2";"6";"62";"61";"10";"0";"0";"0";"52";"0";"9809"
"26.03.2024, 01:50";"1711421401";"60";"3";"6";"62";"61";"10";"0";"0";"0";"54";"0";"9809"
"26.03.2024, 02:00";"1711422001";"54";"2";"5";"62";"62";"10";"0";"0";"0";"52";"0";"9802"
"26.03.2024, 02:10";"1711422601";"60";"3";"7";"61";"63";"10";"0";"0";"0";"53";"0";"9802"
"26.03.2024, 02:20";"1711423201";"62";"3";"7";"61";"62";"10";"0";"0";"0";"53";"0";"9802"
"26.03.2024, 02:30";"1711423801";"62";"3";"7";"61";"63";"10";"0";"0";"0";"52";"0";"9802"
"26.03.2024, 02:40";"1711424401";"60";"3";"5";"60";"63";"10";"0";"0";"0";"51";"0";"9802"
"26.03.2024, 02:50";"1711425001";"59";"3";"5";"60";"64";"10";"0";"0";"0";"51";"0";"9802"
"26.03.2024, 03:00";"1711425601";"58";"3";"6";"59";"64";"10";"0";"0";"0";"50";"0";"9792"
"26.03.2024, 03:10";"1711426201";"51";"3";"6";"59";"65";"11";"0";"0";"0";"47";"0";"9792"
"26.03.2024, 03:20";"1711426802";"48";"2";"4";"58";"65";"10";"0";"0";"0";"46";"0";"9792"
"26.03.2024, 03:30";"1711427401";"47";"3";"5";"58";"65";"11";"0";"0";"0";"46";"0";"9792"
"26.03.2024, 03:40";"1711428001";"46";"3";"5";"57";"66";"11";"0";"0";"0";"45";"0";"9792"
"26.03.2024, 03:50";"1711428601";"43";"2";"5";"56";"66";"11";"0";"0";"0";"40";"0";"9792"
"26.03.2024, 04:00";"1711429201";"31";"2";"4";"54";"67";"11";"0";"0";"0";"42";"0";"9785"
"26.03.2024, 04:10";"1711429801";"27";"2";"5";"54";"67";"11";"0";"0";"0";"45";"0";"9785"
"26.03.2024, 04:20";"1711430401";"48";"3";"6";"53";"68";"11";"0";"0";"0";"41";"0";"9785"
"26.03.2024, 04:30";"1711431001";"60";"2";"5";"52";"68";"11";"0";"0";"0";"43";"0";"9785"
"26.03.2024, 04:40";"1711431601";"57";"2";"5";"53";"68";"13";"0";"0";"0";"44";"0";"9785"
"26.03.2024, 04:50";"1711432201";"54";"1";"4";"53";"69";"41";"0";"0";"0";"44";"0";"9785"
"26.03.2024, 05:00";"1711432801";"48";"1";"5";"53";"69";"40";"0";"0";"0";"45";"0";"9781"
"26.03.2024, 05:10";"1711433401";"54";"2";"5";"53";"69";"68";"0";"0";"0";"48";"0";"9781"
"26.03.2024, 05:20";"1711434001";"51";"2";"4";"54";"69";"139";"0";"0";"0";"51";"0";"9781"
"26.03.2024, 05:30";"1711434601";"32";"1";"3";"56";"69";"350";"2";"0";"0";"54";"0";"9781"
"26.03.2024, 05:40";"1711435201";"29";"1";"3";"58";"68";"760";"10";"0";"0";"58";"0";"9781"
"26.03.2024, 05:50";"1711435801";"37";"1";"3";"61";"67";"549";"6";"0";"0";"63";"0";"9781"
"26.03.2024, 06:00";"1711436401";"19";"0";"2";"63";"67";"192";"0";"0";"0";"67";"0";"9781"
"26.03.2024, 06:10";"1711437001";"142";"0";"5";"67";"67";"211";"0";"0";"0";"74";"0";"9781"
"26.03.2024, 06:20";"1711437601";"3";"0";"2";"73";"59";"280";"1";"0";"0";"81";"0";"9781"
"26.03.2024, 06:30";"1711438201";"156";"2";"7";"81";"58";"157";"0";"0";"0";"89";"0";"9781"
"26.03.2024, 06:40";"1711438801";"150";"2";"8";"86";"56";"208";"0";"0";"0";"91";"0";"9781"
"26.03.2024, 06:50";"1711439401";"134";"3";"10";"89";"53";"183";"0";"0";"0";"94";"0";"9781"
"26.03.2024, 07:00";"1711440001";"144";"3";"7";"92";"53";"154";"0";"0";"0";"95";"0";"9775"
"26.03.2024, 07:10";"1711440601";"141";"4";"11";"93";"53";"223";"0";"0";"0";"96";"0";"9775"
"26.03.2024, 07:20";"1711441201";"152";"6";"11";"95";"53";"280";"0";"0";"0";"110";"0";"9775"
"26.03.2024, 07:30";"1711441802";"146";"6";"14";"97";"53";"589";"8";"0";"0";"106";"0";"9775"
"26.03.2024, 07:40";"1711442402";"147";"5";"13";"100";"53";"459";"7";"0";"0";"114";"0";"9775"
"26.03.2024, 07:50";"1711443001";"142";"6";"13";"102";"52";"683";"10";"0";"0";"112";"0";"9775"
"26.03.2024, 08:00";"1711443601";"146";"5";"13";"104";"51";"388";"4";"0";"0";"109";"0";"9770"
"26.03.2024, 08:10";"1711444201";"144";"6";"15";"104";"52";"255";"0";"0";"0";"107";"0";"9770"
"26.03.2024, 08:20";"1711444801";"143";"6";"14";"105";"52";"238";"0";"0";"0";"111";"0";"9770"
"26.03.2024, 08:30";"1711445401";"151";"7";"12";"106";"52";"238";"0";"0";"0";"113";"0";"9770"
"26.03.2024, 08:40";"1711446001";"152";"5";"12";"107";"51";"173";"0";"0";"0";"112";"0";"9770"
"26.03.2024, 08:50";"1711446601";"143";"6";"14";"108";"51";"157";"0";"0";"0";"111";"0";"9770"
"26.03.2024, 09:00";"1711447201";"148";"6";"13";"108";"52";"151";"0";"0";"0";"113";"0";"9766"
"26.03.2024, 09:10";"1711447801";"155";"5";"10";"109";"53";"155";"0";"0";"0";"117";"0";"9766"
"26.03.2024, 09:20";"1711448401";"152";"6";"11";"110";"54";"142";"0";"0";"0";"117";"0";"9766"
"26.03.2024, 09:30";"1711449001";"147";"6";"11";"111";"54";"130";"0";"0";"0";"118";"0";"9766"
"26.03.2024, 09:40";"1711449601";"141";"6";"13";"111";"54";"141";"0";"0";"0";"115";"0";"9766"
"26.03.2024, 09:50";"1711450201";"152";"6";"13";"111";"54";"140";"0";"0";"0";"114";"0";"9766"
"26.03.2024, 10:00";"1711450801";"151";"7";"12";"112";"55";"133";"0";"0";"0";"121";"0";"9759"
"26.03.2024, 10:10";"1711451401";"142";"6";"13";"113";"55";"157";"0";"0";"0";"124";"0";"9759"
"26.03.2024, 10:20";"1711452001";"149";"5";"9";"117";"56";"297";"0";"0";"0";"138";"0";"9759"
"26.03.2024, 10:30";"1711452602";"149";"5";"13";"119";"56";"449";"8";"0";"0";"134";"0";"9759"
"26.03.2024, 10:40";"1711453201";"155";"6";"13";"122";"55";"501";"10";"0";"0";"140";"0";"9759"
"26.03.2024, 10:50";"1711453801";"142";"5";"10";"125";"56";"436";"6";"0";"0";"143";"0";"9759"
"26.03.2024, 11:00";"1711454401";"141";"6";"11";"127";"55";"611";"10";"0";"0";"143";"0";"9751"
"26.03.2024, 11:10";"1711455001";"148";"7";"15";"130";"55";"750";"10";"0";"0";"147";"0";"9751"
"26.03.2024, 11:20";"1711455601";"152";"6";"13";"130";"55";"537";"8";"0";"0";"138";"0";"9751"
"26.03.2024, 11:30";"1711456201";"153";"7";"13";"131";"55";"396";"4";"0";"0";"149";"0";"9751"
"26.03.2024, 11:40";"1711456801";"160";"6";"11";"134";"55";"715";"10";"0";"0";"164";"0";"9751"
"26.03.2024, 11:50";"1711457401";"155";"6";"15";"136";"54";"929";"10";"0";"0";"162";"0";"9751"
"26.03.2024, 12:00";"1711458001";"149";"7";"16";"137";"54";"961";"10";"0";"0";"150";"0";"9746"
"26.03.2024, 12:10";"1711458601";"154";"5";"11";"140";"53";"871";"10";"0";"0";"153";"0";"9746"
"26.03.2024, 12:20";"1711459201";"132";"5";"16";"142";"54";"1,160";"10";"0";"0";"153";"0";"9746"
"26.03.2024, 12:30";"1711459801";"151";"5";"12";"143";"53";"1,120";"10";"0";"0";"147";"0";"9746"
"26.03.2024, 12:40";"1711460402";"137";"5";"13";"141";"52";"730";"10";"0";"0";"145";"0";"9746"
"26.03.2024, 12:50";"1711461001";"144";"6";"13";"140";"53";"641";"10";"0";"0";"142";"0";"9746"
"26.03.2024, 13:00";"1711461601";"153";"6";"12";"138";"52";"354";"1";"0";"0";"142";"0";"9736"
"26.03.2024, 13:10";"1711462201";"143";"5";"13";"137";"53";"291";"0";"0";"0";"141";"0";"9736"
"26.03.2024, 13:20";"1711462801";"152";"5";"12";"138";"53";"366";"0";"0";"0";"142";"0";"9736"
"26.03.2024, 13:30";"1711463401";"143";"6";"13";"139";"54";"381";"1";"0";"0";"143";"0";"9736"
"26.03.2024, 13:40";"1711464001";"133";"5";"13";"139";"53";"543";"10";"0";"0";"140";"0";"9736"
"26.03.2024, 13:50";"1711464601";"126";"5";"17";"140";"52";"551";"10";"0";"0";"144";"0";"9736"
"26.03.2024, 14:00";"1711465201";"134";"4";"11";"142";"54";"1,172";"10";"0";"0";"146";"0";"9729"
"26.03.2024, 14:10";"1711465801";"145";"5";"12";"143";"52";"1,326";"10";"0";"0";"144";"0";"9729"
"26.03.2024, 14:20";"1711466401";"126";"4";"14";"143";"51";"689";"10";"0";"0";"142";"0";"9729"
"26.03.2024, 14:30";"1711467001";"118";"5";"14";"143";"51";"707";"10";"0";"0";"140";"0";"9729"
"26.03.2024, 14:40";"1711467601";"143";"5";"11";"143";"51";"976";"10";"0";"0";"138";"0";"9729"
"26.03.2024, 14:50";"1711468201";"121";"4";"10";"142";"50";"1,213";"10";"0";"0";"136";"0";"9729"
"26.03.2024, 15:00";"1711468801";"108";"4";"11";"143";"51";"1,408";"10";"0";"0";"137";"0";"9720"
"26.03.2024, 15:10";"1711469401";"127";"4";"8";"144";"51";"1,348";"10";"0";"0";"138";"0";"9720"
"26.03.2024, 15:20";"1711470001";"106";"3";"7";"144";"50";"898";"10";"0";"0";"139";"0";"9720"
"26.03.2024, 15:30";"1711470601";"108";"4";"8";"146";"51";"1,673";"10";"0";"0";"141";"0";"9720"
"26.03.2024, 15:40";"1711471201";"117";"3";"8";"147";"50";"2,153";"10";"0";"0";"140";"0";"9720"
"26.03.2024, 15:50";"1711471801";"122";"2";"7";"147";"50";"1,091";"10";"0";"0";"136";"0";"9720"
"26.03.2024, 16:00";"1711472401";"126";"4";"10";"148";"50";"1,014";"10";"0";"0";"138";"0";"9715"
"26.03.2024, 16:10";"1711473002";"113";"4";"8";"148";"50";"1,147";"10";"0";"0";"139";"0";"9715"
"26.03.2024, 16:20";"1711473601";"116";"3";"7";"148";"50";"753";"9";"0";"0";"137";"0";"9715"
"26.03.2024, 16:30";"1711474201";"121";"3";"7";"147";"50";"371";"4";"0";"0";"130";"0";"9715"
"26.03.2024, 16:40";"1711474801";"117";"2";"7";"146";"51";"189";"0";"0";"0";"132";"0";"9715"
"26.03.2024, 16:50";"1711475401";"104";"3";"6";"144";"52";"76";"0";"0";"0";"128";"0";"9715"
"26.03.2024, 17:00";"1711476001";"78";"1";"5";"141";"53";"17";"0";"0";"0";"122";"0";"9715"
"26.03.2024, 17:10";"1711476601";"78";"1";"4";"138";"54";"10";"0";"0";"0";"113";"0";"9715"
"26.03.2024, 17:20";"1711477201";"90";"1";"5";"137";"54";"10";"0";"0";"0";"126";"0";"9715"
"26.03.2024, 17:30";"1711477801";"97";"3";"6";"136";"54";"10";"0";"0";"0";"124";"0";"9715"
"26.03.2024, 17:40";"1711478401";"90";"3";"5";"135";"54";"10";"0";"0";"0";"123";"0";"9715"
"26.03.2024, 17:50";"1711479001";"97";"3";"7";"135";"53";"10";"0";"0";"0";"125";"0";"9715"
"26.03.2024, 18:00";"1711479601";"111";"3";"8";"135";"51";"9";"0";"0";"0";"124";"0";"9715"
"26.03.2024, 18:10";"1711480201";"113";"4";"8";"135";"49";"9";"0";"0";"0";"127";"0";"9715"
"26.03.2024, 18:20";"1711480801";"114";"5";"10";"135";"48";"9";"0";"0";"0";"124";"0";"9715"
"26.03.2024, 18:30";"1711481401";"112";"5";"11";"135";"48";"9";"0";"0";"0";"124";"0";"9715"
"26.03.2024, 18:40";"1711482001";"110";"5";"10";"134";"47";"9";"0";"0";"0";"123";"0";"9715"